Location: Beckers Corners
(42.5484°N, 73.8110°W)
Time: 07:34:21
(UTC+00:00)

DIWATA 2B (PO-101) - Pass Details

Date: 10 December 2024
Orbit: 569 x 582 km, 98.1° (Epoch: 18 January)

Event Time Altitude Azimuth Distance (km) Brightness Sun altitude
Rises 22:37:24 0° 3° (N) 2,791 ? -13.4°
Reaches altitude 10° 22:39:43 10° 353° (N) 1,886 ? -13.8°
Maximum altitude 22:43:18 31° 291° (WNW) 1,024 ? -14.4°
Drops below altitude 10° 22:46:52 10° 229° (SW) 1,868 ? -15.0°
Sets 22:49:10 0° 219° (SW) 2,759 ? -15.5°
